FW0878 Weather Reports


time (UTC)temp
C
wind
direction
speed
KPH
gust
KPH
rain 1hr
cm
rain 24hr
cm
rain mn
cm
humidity
%
barometer
mb
20260510104807 11 112 0.0 0.0 0.00 0.00 0.00 86 1031.8
20260510104308 11 112 0.0 1.6 0.00 0.00 0.00 86 1031.8
20260510103806 11 135 0.0 0.0 0.00 0.00 0.00 86 1031.9
20260510103307 11 135 0.0 0.0 0.00 0.00 0.00 86 1031.9
20260510102807 11 135 0.0 0.0 0.00 0.00 0.00 86 1032.0
20260510102307 10 135 0.0 0.0 0.00 0.00 0.00 86 1031.9
20260510101806 10 135 0.0 0.0 0.00 0.00 0.00 86 1031.9
20260510101307 10 135 0.0 0.0 0.00 0.00 0.00 86 1031.9
20260510100308 10 135 0.0 0.0 0.00 0.00 0.00 85 1031.7
20260510095807 10 135 0.0 0.0 0.00 0.00 0.00 84 1031.9
20260510095308 10 135 0.0 0.0 0.00 0.00 0.00 83 1031.7
20260510094807 10 135 0.0 0.0 0.00 0.00 0.00 83 1031.7
20260510094307 10 135 0.0 0.0 0.00 0.00 0.00 83 1031.6
20260510093807 10 135 0.0 0.0 0.00 0.00 0.00 82 1031.9
20260510093307 10 135 0.0 0.0 0.00 0.00 0.00 82 1031.5
20260510092808 11 135 0.0 0.0 0.00 0.00 0.00 81 1031.5
20260510092308 11 135 0.0 0.0 0.00 0.00 0.00 81 1031.6
20260510091807 11 135 0.0 0.0 0.00 0.00 0.00 79 1031.4
20260510091307 11 135 0.0 0.0 0.00 0.00 0.00 77 1031.4
20260510090806 11 135 0.0 0.0 0.00 0.00 0.00 76 1031.4
20260510090307 11 135 0.0 0.0 0.00 0.00 0.00 75 1031.4
20260510084808 12 135 0.0 0.0 0.00 0.00 0.00 72 1031.3
20260510084308 12 135 0.0 0.0 0.00 0.00 0.00 72 1031.2
20260510083307 13 135 0.0 0.0 0.00 0.00 0.00 71 1031.3
20260510082806 13 135 0.0 0.0 0.00 0.00 0.00 70 1031.1
20260510082307 13 135 0.0 0.0 0.00 0.00 0.00 70 1031.2
20260510081806 13 135 0.0 0.0 0.00 0.00 0.00 69 1031.1
20260510081307 14 135 0.0 1.6 0.00 0.00 0.00 69 1031.1
20260510080808 14 135 1.6 4.8 0.00 0.00 0.00 68 1030.9
20260510075808 15 137 1.6 3.2 0.00 0.00 0.00 67 1030.7
20260510075308 15 134 1.6 8.0 0.00 0.00 0.00 67 1030.8
20260510074808 15 89 1.6 4.8 0.00 0.00 0.00 66 1030.7
20260510074307 15 91 3.2 4.8 0.00 0.00 0.00 66 1030.8
20260510073807 15 91 1.6 4.8 0.00 0.00 0.00 66 1030.7
20260510073307 15 111 3.2 4.8 0.00 0.00 0.00 66 1030.7
20260510072808 15 90 1.6 4.8 0.00 0.00 0.00 66 1030.6
20260510072307 15 69 1.6 4.8 0.00 0.00 0.00 66 1030.6
20260510071807 15 115 1.6 4.8 0.00 0.00 0.00 66 1030.6
20260510071308 15 112 1.6 3.2 0.00 0.00 0.00 66 1030.6
20260510070807 15 112 1.6 3.2 0.00 0.00 0.00 66 1030.5
20260510070307 15 106 1.6 4.8 0.00 0.00 0.00 65 1030.6
20260510065808 15 88 0.0 4.8 0.00 0.00 0.00 65 1030.6
20260510065307 15 112 1.6 4.8 0.00 0.00 0.00 65 1030.6
20260510064806 15 157 1.6 4.8 0.00 0.00 0.00 65 1030.4
20260510064307 15 95 1.6 3.2 0.00 0.00 0.00 66 1030.6
20260510063307 15 90 1.6 8.0 0.00 0.00 0.00 65 1030.3
20260510062807 15 90 3.2 8.0 0.00 0.00 0.00 64 1030.4
20260510061807 16 199 1.6 8.0 0.00 0.00 0.00 63 1030.4
20260510061308 16 91 1.6 8.0 0.00 0.00 0.00 64 1030.3
20260510060808 16 116 3.2 4.8 0.00 0.00 0.00 63 1030.4
20260510055806 16 155 3.2 8.0 0.00 0.00 0.00 63 1030.3
20260510055308 16 139 3.2 8.0 0.00 0.00 0.00 63 1030.4
20260510054808 16 90 3.2 4.8 0.00 0.00 0.00 62 1030.1
20260510053807 16 202 1.6 4.8 0.00 0.00 0.00 63 1030.1
20260510053308 16 180 0.0 4.8 0.00 0.00 0.00 64 1030.3
20260510052808 16 223 1.6 8.0 0.00 0.00 0.00 65 1030.3
20260510052307 16 291 3.2 8.0 0.00 0.00 0.00 65 1030.0
20260510051806 16 224 3.2 8.0 0.00 0.00 0.00 65 1030.2
20260510050807 16 133 4.8 9.7 0.00 0.00 0.00 64 1030.2
20260510050307 16 113 3.2 8.0 0.00 0.00 0.00 65 1030.2
20260510045807 16 114 1.6 8.0 0.00 0.00 0.00 64 1030.1
20260510045307 16 177 3.2 8.0 0.00 0.00 0.00 63 1030.2
20260510044807 16 221 1.6 8.0 0.00 0.00 0.00 63 1030.1
20260510044307 16 114 4.8 8.0 0.00 0.00 0.00 63 1030.3
20260510043807 16 112 3.2 8.0 0.00 0.00 0.00 62 1030.1
20260510043307 16 114 1.6 4.8 0.00 0.00 0.00 62 1030.1
20260510042807 16 112 1.6 4.8 0.00 0.00 0.00 62 1030.0
20260510042307 16 199 3.2 4.8 0.00 0.00 0.00 62 1030.2
20260510041806 16 176 4.8 9.7 0.00 0.00 0.00 62 1030.1
20260510041307 16 118 4.8 9.7 0.00 0.00 0.00 61 1030.1
20260510035807 16 124 1.6 4.8 0.00 0.00 0.00 61 1030.1
20260510035307 16 114 1.6 3.2 0.00 0.00 0.00 61 1030.3
20260510034807 16 230 3.2 8.0 0.00 0.00 0.00 62 1030.4
20260510033807 16 157 4.8 8.0 0.00 0.00 0.00 62 1030.2
20260510032807 16 143 3.2 9.7 0.00 0.00 0.00 64 1030.3
20260510032306 16 175 1.6 8.0 0.00 0.00 0.00 63 1030.5
20260510031307 16 154 3.2 8.0 0.00 0.00 0.00 62 1030.4
20260510030807 16 222 3.2 4.8 0.00 0.00 0.00 63 1030.5
20260510030307 16 268 0.0 9.7 0.00 0.00 0.00 64 1030.4
20260510025807 16 225 3.2 9.7 0.00 0.00 0.00 63 1030.5
20260510024806 16 248 3.2 8.0 0.00 0.00 0.00 64 1030.7
20260510024307 16 113 3.2 8.0 0.00 0.00 0.00 62 1030.9
20260510023807 16 225 1.6 9.7 0.00 0.00 0.00 62 1030.9
20260510023308 16 133 4.8 9.7 0.00 0.00 0.00 62 1030.9
20260510022807 16 190 3.2 9.7 0.00 0.00 0.00 64 1030.9
20260510022308 16 185 4.8 9.7 0.00 0.00 0.00 62 1030.9
20260510021307 16 96 3.2 9.7 0.00 0.00 0.00 62 1030.9
20260510020807 16 178 3.2 9.7 0.00 0.00 0.00 62 1031.3
20260510020307 16 110 3.2 8.0 0.00 0.00 0.00 62 1031.3
20260510015807 16 221 1.6 9.7 0.00 0.00 0.00 63 1031.2
20260510015308 16 197 4.8 11.3 0.00 0.00 0.00 63 1031.3
20260510014307 16 113 4.8 9.7 0.00 0.00 0.00 65 1031.4
20260510013307 16 116 4.8 9.7 0.00 0.00 0.00 64 1031.6
20260510012807 16 135 1.6 8.0 0.00 0.00 0.00 62 1031.6
20260510012307 16 112 3.2 4.8 0.00 0.00 0.00 61 1031.7
20260510011807 17 136 3.2 4.8 0.00 0.00 0.00 61 1031.7
20260510011307 17 112 3.2 9.7 0.00 0.00 0.00 60 1031.6
20260510010807 16 68 3.2 8.0 0.00 0.00 0.00 60 1031.6
20260510010308 16 92 3.2 8.0 0.00 0.00 0.00 62 1031.6
20260510005807 15 132 3.2 8.0 0.00 0.00 0.00 63 1031.6
20260510005308 15 160 4.8 9.7 0.00 0.00 0.00 63 1031.8
20260510004808 15 161 3.2 11.3 0.00 0.00 0.00 63 1031.7
20260510003807 16 221 4.8 9.7 0.00 0.00 0.00 64 1031.7
20260510003307 15 119 3.2 8.0 0.00 0.00 0.00 65 1031.6
20260510002807 15 160 1.6 8.0 0.00 0.00 0.00 69 1031.7
20260510002307 15 199 3.2 9.7 0.00 0.00 0.00 69 1031.7
20260510001807 15 200 3.2 11.3 0.00 0.00 0.00 71 1031.6
20260510000806 15 181 3.2 9.7 0.00 0.00 0.00 76 1031.7
20260510000311 15 192 1.6 4.8 0.00 0.00 0.00 81 1031.7
20260509235807 14 209 3.2 8.0 0.00 0.00 0.00 81 1031.8
20260509235307 14 269 3.2 4.8 0.00 0.00 0.00 82 1031.6
20260509234807 14 230 3.2 4.8 0.00 0.00 0.00 83 1031.7
20260509234307 14 241 3.2 8.0 0.00 0.00 0.00 83 1031.7
20260509233307 14 182 1.6 4.8 0.00 0.00 0.00 85 1031.7
20260509232807 13 247 1.6 4.8 0.00 0.00 0.00 85 1031.6
20260509232307 13 268 1.6 4.8 0.00 0.00 0.00 85 1031.6
20260509231806 13 251 3.2 8.0 0.00 0.00 0.00 85 1031.7
20260509231306 13 201 3.2 8.0 0.00 0.00 0.00 86 1031.7
20260509230807 13 232 1.6 4.8 0.00 0.00 0.00 86 1031.6
20260509230308 13 205 1.6 3.2 0.00 0.00 0.00 87 1031.5
20260509225308 13 270 1.6 1.6 0.00 0.00 0.00 88 1031.6
20260509224807 13 268 1.6 3.2 0.00 0.00 0.00 88 1031.6
20260509224307 13 226 1.6 3.2 0.00 0.00 0.00 88 1031.4
20260509223807 13 203 1.6 3.2 0.00 0.00 0.00 89 1031.4
20260509222807 13 270 1.6 1.6 0.00 0.00 0.00 90 1031.4
20260509221806 12 248 0.0 1.6 0.00 0.00 0.00 91 1031.4
20260509221308 12 270 1.6 3.2 0.00 0.00 0.00 91 1031.2
20260509220807 12 268 0.0 3.2 0.00 0.00 0.00 92 1031.2
20260509220307 12 270 1.6 1.6 0.00 0.00 0.00 92 1031.0
20260509215807 12 250 0.0 1.6 0.00 0.00 0.00 92 1031.0
20260509215307 12 204 0.0 1.6 0.00 0.00 0.00 92 1030.8
20260509214808 12 226 1.6 1.6 0.00 0.00 0.00 92 1030.8
20260509214308 12 248 1.6 1.6 0.00 0.00 0.00 92 1030.6
20260509213307 12 270 0.0 3.2 0.00 0.00 0.00 93 1030.7
20260509212806 12 270 1.6 3.2 0.00 0.00 0.00 93 1030.4
20260509212307 12 249 1.6 1.6 0.00 0.00 0.00 93 1030.6
20260509211307 12 243 3.2 4.8 0.00 0.00 0.00 93 1030.4
20260509210808 12 226 1.6 3.2 0.00 0.00 0.00 93 1030.5
20260509210307 12 270 1.6 3.2 0.00 0.00 0.00 94 1030.3
20260509205308 12 228 1.6 3.2 0.00 0.00 0.00 94 1030.3
20260509204808 12 292 0.0 1.6 0.00 0.00 0.00 94 1030.1
20260509204307 12 270 0.0 0.0 0.00 0.00 0.00 94 1030.2
20260509203807 12 248 0.0 1.6 0.00 0.00 0.00 94 1030.2
20260509203307 12 292 0.0 0.0 0.00 0.00 0.00 94 1030.1
20260509202808 12 292 0.0 0.0 0.00 0.00 0.00 94 1030.1
20260509202307 12 292 0.0 0.0 0.00 0.00 0.00 94 1030.1
20260509201806 12 292 0.0 0.0 0.00 0.00 0.00 94 1029.9
20260509200806 12 292 0.0 0.0 0.00 0.00 0.00 94 1029.9
20260509200307 12 292 0.0 0.0 0.00 0.00 0.00 94 1029.8
20260509195807 12 292 0.0 1.6 0.00 0.00 0.00 94 1029.8
20260509195307 12 270 0.0 1.6 0.00 0.00 0.00 94 1029.6
20260509194808 12 268 0.0 1.6 0.00 0.00 0.00 94 1029.6
20260509194308 12 246 0.0 1.6 0.00 0.00 0.00 94 1029.6
20260509193806 12 270 0.0 1.6 0.00 0.00 0.00 94 1029.4
20260509193307 12 270 1.6 1.6 0.00 0.00 0.00 94 1029.5
20260509192808 12 270 0.0 1.6 0.00 0.00 0.00 94 1029.3
20260509192308 12 227 0.0 1.6 0.00 0.00 0.00 94 1029.5
20260509191806 12 223 0.0 0.0 0.00 0.00 0.00 94 1029.4
20260509191307 12 227 0.0 1.6 0.00 0.00 0.00 94 1029.4
20260509190808 12 250 0.0 1.6 0.00 0.00 0.00 94 1029.3
20260509190308 12 251 1.6 1.6 0.00 0.00 0.00 94 1029.3
20260509185808 12 248 1.6 3.2 0.00 0.00 0.00 93 1029.3
20260509185307 12 267 1.6 3.2 0.00 0.00 0.00 93 1029.2
20260509184807 12 160 1.6 3.2 0.00 0.00 0.00 93 1029.2
20260509184307 12 212 1.6 4.8 0.00 0.00 0.00 93 1029.1
20260509183807 12 225 1.6 1.6 0.00 0.00 0.00 93 1029.1
20260509183308 12 225 0.0 1.6 0.00 0.00 0.00 93 1029.1
20260509182807 12 224 1.6 1.6 0.00 0.00 0.00 93 1029.1
20260509182307 12 227 0.0 1.6 0.00 0.00 0.00 93 1029.0
20260509180807 12 225 0.0 1.6 0.00 0.00 0.00 93 1028.8
20260509175807 12 205 1.6 3.2 0.00 0.00 0.00 93 1028.8
20260509175307 12 202 1.6 4.8 0.00 0.00 0.00 93 1028.7
20260509174808 12 200 1.6 3.2 0.00 0.00 0.00 93 1028.8
20260509174308 12 242 1.6 3.2 0.00 0.00 0.00 93 1028.8
20260509173807 12 187 1.6 4.8 0.00 0.00 0.00 93 1028.9
20260509173307 12 204 1.6 3.2 0.00 0.00 0.00 93 1028.7
20260509171807 12 262 1.6 3.2 0.00 0.00 0.00 93 1028.7
20260509171306 12 248 1.6 3.2 0.00 0.00 0.00 92 1028.8
20260509170808 12 249 1.6 3.2 0.00 0.00 0.00 92 1028.9
20260509170307 12 288 1.6 3.2 0.00 0.00 0.00 92 1028.9
20260509165807 12 246 1.6 3.2 0.00 0.00 0.00 92 1029.1
20260509164807 13 243 1.6 9.7 0.00 0.00 0.00 91 1028.9
20260509164308 13 223 1.6 3.2 0.00 0.00 0.00 91 1028.9
20260509163308 13 180 0.0 1.6 0.00 0.00 0.00 90 1028.9
20260509162808 13 244 1.6 3.2 0.00 0.00 0.00 90 1029.1
20260509162307 13 270 1.6 3.2 0.00 0.00 0.00 89 1029.0
20260509161806 13 248 0.0 1.6 0.00 0.00 0.00 89 1029.1
20260509161307 13 248 0.0 1.6 0.00 0.00 0.00 89 1029.1
20260509160807 13 225 0.0 1.6 0.00 0.00 0.00 89 1029.1
20260509160307 13 246 0.0 3.2 0.00 0.00 0.00 89 1028.9
20260509155808 13 246 0.0 0.0 0.00 0.00 0.00 89 1029.0
20260509154807 13 202 1.6 3.2 0.00 0.00 0.00 88 1029.0
20260509154308 13 270 1.6 3.2 0.00 0.00 0.00 88 1029.0
20260509153807 13 202 1.6 1.6 0.00 0.00 0.00 88 1029.3
20260509153307 13 208 1.6 4.8 0.00 0.00 0.00 88 1029.2
20260509152808 13 289 1.6 4.8 0.00 0.00 0.00 88 1029.1
20260509152307 13 228 3.2 4.8 0.00 0.00 0.00 88 1028.8
20260509151807 13 182 1.6 3.2 0.00 0.00 0.00 87 1029.1
20260509151307 13 247 1.6 4.8 0.00 0.00 0.00 87 1029.0
20260509150808 13 185 1.6 3.2 0.00 0.00 0.00 87 1029.1
20260509150307 13 264 1.6 4.8 0.00 0.00 0.00 87 1029.1
20260509145807 13 249 1.6 4.8 0.00 0.00 0.00 87 1029.2
20260509144807 13 270 1.6 4.8 0.00 0.00 0.00 86 1029.2
20260509143807 13 220 3.2 9.7 0.00 0.00 0.00 86 1029.0
20260509143308 13 247 3.2 8.0 0.00 0.00 0.00 86 1028.9
20260509142807 13 244 3.2 8.0 0.00 0.00 0.00 86 1029.0
20260509142308 13 215 3.2 8.0 0.00 0.00 0.00 87 1029.2
20260509141807 13 224 4.8 8.0 0.00 0.00 0.00 87 1028.9
20260509141307 13 210 1.6 4.8 0.00 0.00 0.00 87 1029.0
20260509140808 13 222 3.2 8.0 0.00 0.00 0.00 87 1029.0
20260509140308 13 160 1.6 8.0 0.00 0.00 0.00 88 1029.1
20260509135808 13 207 1.6 4.8 0.00 0.00 0.00 88 1029.0
20260509135307 13 225 1.6 3.2 0.00 0.00 0.00 88 1029.0
20260509134807 13 135 0.0 8.0 0.00 0.00 0.00 89 1028.9
20260509134308 13 205 1.6 4.8 0.00 0.00 0.00 89 1029.0
20260509133808 13 246 1.6 4.8 0.00 0.00 0.00 89 1028.9
20260509133308 13 163 0.0 1.6 0.00 0.00 0.00 90 1029.1
20260509132807 13 222 0.0 1.6 0.00 0.00 0.00 90 1029.0
20260509132307 13 223 0.0 1.6 0.00 0.00 0.00 90 1029.0
20260509131806 13 202 0.0 3.2 0.00 0.00 0.00 90 1029.0
20260509131307 13 225 1.6 3.2 0.00 0.00 0.00 90 1029.1
20260509130808 13 225 0.0 1.6 0.00 0.00 0.00 90 1029.0
20260509130307 13 225 0.0 0.0 0.00 0.00 0.00 90 1028.9
20260509125807 13 225 0.0 0.0 0.00 0.00 0.00 90 1029.1
20260509125308 13 225 0.0 0.0 0.00 0.00 0.00 90 1029.1
20260509124807 13 225 0.0 0.0 0.00 0.00 0.00 89 1029.1
20260509124308 13 225 0.0 0.0 0.00 0.00 0.00 89 1029.2
20260509122807 13 202 0.0 0.0 0.00 0.00 0.00 89 1029.0
20260509122307 13 202 0.0 1.6 0.00 0.00 0.00 89 1029.1
20260509121806 13 160 0.0 1.6 0.00 0.00 0.00 89 1029.1
20260509121308 14 158 0.0 1.6 0.00 0.00 0.00 89 1029.1
20260509120806 14 223 0.0 3.2 0.00 0.00 0.00 89 1029.1
20260509120307 14 248 1.6 4.8 0.00 0.00 0.00 88 1029.1
20260509115807 14 205 1.6 4.8 0.00 0.00 0.00 88 1029.1
20260509115308 14 200 3.2 4.8 0.00 0.00 0.00 87 1029.1
20260509114808 14 113 1.6 3.2 0.00 0.00 0.00 87 1028.9
20260509114307 14 156 1.6 3.2 0.00 0.00 0.00 87 1028.9
20260509113807 14 135 0.0 1.6 0.00 0.00 0.00 87 1028.9
20260509113308 14 138 1.6 1.6 0.00 0.00 0.00 87 1029.0
20260509112807 14 180 0.0 1.6 0.00 0.00 0.00 87 1028.9
20260509112307 14 202 1.6 3.2 0.00 0.00 0.00 87 1029.1
20260509111806 14 161 1.6 3.2 0.00 0.00 0.00 87 1029.0
20260509111308 14 140 1.6 3.2 0.00 0.00 0.00 87 1028.8
20260509105807 14 202 1.6 3.2 0.00 0.00 0.00 87 1028.9